Wind_Speed
16 13 15 15 12 15 14 16 15 16 17 14 12 11 10 12 11 11 9 9 8 11 11 10 8 10 12 11 12 13 15 16 16 16 16 17 17 18 21 21 21 21 20 19 18 17 16 19 18
19 17 16 16 19 18 16 13 13 18 17 13 12 10 10 9 8 9 9 8 7 11 12 12 11 11 12 11 12 15 17 18 16 17 17 17 17 17 18 21 20 19 19 20 21 20 16 17 18
18 20 19 20 20 21 17 14 14 15 13 11 9 11 11 7 6 7 8 9 8 10 12 12 11 12 12 12 13 18 19 18 18 17 17 17 17 17 15 19 20 19 20 19 19 20 19 16 18
20 18 20 21 23 20 17 14 14 11 12 11 9 8 7 5 5 6 7 8 8 10 11 9 9 10 12 13 15 18 18 18 18 18 17 17 18 17 15 16 18 18 18 18 18 18 20 23 19
10 15 19 21 23 21 16 14 15 14 14 11 10 8 6 6 8 8 7 9 9 10 10 7 7 8 10 11 14 17 17 18 17 18 17 18 17 16 15 14 15 17 17 17 18 19 19 17 18
13 12 16 18 20 19 16 14 13 14 14 14 13 10 8 8 10 11 10 8 7 8 9 7 7 7 8 10 13 14 15 16 17 16 16 16 15 14 14 15 14 14 15 16 16 17 18 19 16
15 16 16 14 17 18 17 14 12 13 13 14 12 10 8 7 9 9 8 6 6 8 10 8 7 7 7 8 11 13 14 15 14 13 13 14 12 13 14 12 12 11 12 12 12 14 16 15 14
7 12 15 14 13 17 17 16 13 10 11 10 11 11 8 8 8 7 6 6 7 9 8 7 6 7 7 8 10 11 13 14 12 12 12 12 12 11 12 10 8 9 10 10 9 10 11 12 15
10 6 14 13 11 13 19 18 16 12 8 8 7 9 8 7 7 7 6 5 7 8 7 6 6 7 8 8 9 10 11 10 9 10 12 10 9 10 11 9 7 6 8 8 8 9 9 10 14
8 16 10 14 8 11 12 16 15 14 9 5 6 6 6 5 5 6 6 6 5 6 7 7 6 6 7 8 8 8 8 9 8 8 10 11 9 8 10 7 5 5 5 6 8 9 8 10 16
16 16 10 10 13 10 10 12 12 10 9 6 4 4 4 5 5 6 5 7 7 8 7 6 5 4 5 6 7 7 7 6 6 6 5 7 8 6 6 9 4 4 3 3 6 8 7 8 12
8 10 13 13 17 13 11 8 8 8 5 5 4 4 3 4 6 7 8 6 7 7 5 4 4 3 2 3 2 2 2 3 4 3 2 2 4 4 2 4 6 0 1 1 2 3 4 5 6
4 10 11 12 10 8 5 8 8 7 5 3 3 2 1 3 6 7 8 7 7 6 4 3 2 2 2 2 2 2 2 1 2 2 3 2 1 1 3 2 2 1 3 5 4 4 2 2 2
5 6 8 8 8 9 9 7 9 9 8 4 2 4 4 3 5 6 7 8 6 5 4 4 3 3 4 4 3 3 3 4 5 6 6 6 6 5 4 5 5 5 4 8 9 6 5 3 4
10 6 6 1 1 7 4 7 4 7 8 7 4 5 5 6 6 6 6 6 5 3 3 3 3 3 4 4 5 6 6 6 6 7 9 10 10 9 7 7 7 7 8 8 11 9 8 8 5
11 5 4 7 8 7 10 6 7 4 7 6 5 5 6 6 6 7 6 6 5 4 3 2 2 3 3 4 6 7 9 9 9 9 11 12 13 12 11 11 11 11 11 12 11 13 14 14 10
11 8 6 7 9 7 4 2 3 7 11 10 5 3 4 6 5 6 7 7 5 5 4 2 0 0 1 3 5 6 7 9 11 10 11 13 14 14 14 13 14 14 16 16 16 16 17 18 15
11 8 5 2 5 5 4 8 8 6 7 5 3 1 0 1 2 3 4 3 2 6 3 6 7 6 5 5 6 8 7 7 8 10 13 14 15 16 16 15 16 16 19 20 22 22 20 20 21
12 8 5 2 4 7 8 9 8 7 7 5 7 9 3 2 2 4 4 4 6 5 6 4 5 5 6 7 8 7 5 6 9 12 15 17 18 20 20 19 19 18 21 25 24 24 25 25 25
5 8 7 5 6 10 11 10 12 12 9 9 10 10 10 9 9 7 6 6 5 6 6 6 8 8 7 7 10 12 11 11 13 14 17 19 21 21 21 22 22 23 24 26 26 26 27 29 28
1 3 3 4 7 8 10 12 10 9 6 4 4 3 5 6 5 5 2 1 2 3 3 3 5 6 7 10 12 15 17 18 19 22 24 23 22 23 25 24 25 26 28 28 31 30 31 32 31
1 3 3 5 4 4 4 8 7 5 3 4 3 4 6 4 3 1 1 4 6 6 7 7 6 8 9 11 13 16 18 19 22 23 26 29 29 29 30 31 32 31 28 31 32 35 35 37 37
6 5 5 5 5 5 4 4 3 2 2 3 4 7 3 3 4 3 4 6 7 9 9 11 13 14 16 18 19 19 18 21 23 24 27 31 33 35 37 39 38 33 31 27 31 37 40 38 38
7 6 5 3 2 6 5 5 3 6 1 5 6 5 10 10 5 7 10 11 11 13 14 13 14 15 18 20 22 23 23 25 26 27 28 30 33 36 39 43 45 44 40 37 40 37 39 39 40
7 9 5 5 3 6 6 2 6 9 7 6 8 7 8 13 10 11 14 19 19 18 17 18 15 15 18 20 23 24 24 26 28 32 29 32 34 37 41 43 45 45 47 41 38 39 45 39 39
9 9 11 11 6 8 8 9 8 10 12 13 14 14 12 11 14 15 20 23 24 22 18 17 19 21 22 23 25 27 27 28 29 32 31 30 33 34 41 42 45 43 42 49 48 42 42 48 48
11 12 12 14 16 12 13 14 12 14 17 19 20 19 16 15 16 20 24 26 26 23 24 25 26 26 27 28 30 30 30 32 32 33 35 34 34 34 37 43 47 46 48 49 50 45 43 40 44
14 13 14 17 19 18 17 13 10 12 15 16 17 17 17 21 24 27 27 28 30 29 31 30 29 30 31 32 33 33 34 36 35 35 37 36 34 34 33 37 40 42 44 46 49 44 45 52 50
17 18 18 19 18 21 23 16 12 16 15 15 17 19 23 26 29 30 31 32 34 35 37 36 35 35 35 35 35 36 37 38 37 36 38 36 33 32 32 32 32 33 36 39 44 43 41 44 45
13 15 16 17 20 22 25 18 18 14 15 18 19 21 24 27 30 31 33 35 37 39 41 41 39 38 39 38 38 39 40 40 38 38 39 37 32 31 31 32 33 39 44 42 46 45 44 49 38
Wind_Direction
40 66 51 47 50 67 101 106 126 135 137 140 143 139 132 127 124 112 105 103 101 93 85 81 76 97 104 93 87 86 92 90 87 83 71 66 70 72 66 71 77 79 78 79 82 78 94 81 74
50 69 58 43 56 67 94 100 116 133 136 139 137 142 138 130 123 108 100 95 90 83 76 76 79 98 111 100 97 95 95 91 86 79 70 74 73 77 74 72 78 78 79 77 76 69 99 102 63
52 54 54 56 65 71 77 101 120 130 138 139 139 137 150 140 117 101 96 99 91 82 72 76 91 108 111 108 105 99 96 93 86 80 79 74 74 80 83 79 78 79 79 82 79 75 91 78 92
47 46 53 56 69 77 78 97 112 125 132 134 136 130 127 125 90 98 107 102 86 79 78 87 94 107 118 123 115 102 97 91 89 87 81 78 81 82 92 86 85 84 83 82 84 82 78 83 83
61 47 51 58 73 81 87 91 107 106 106 103 108 113 117 112 102 102 124 103 80 80 73 78 87 109 117 118 111 108 104 98 97 94 89 87 84 86 90 84 86 78 76 77 77 77 76 85 84
69 56 52 61 76 88 98 102 96 100 98 100 104 102 108 105 101 95 105 120 84 82 79 75 76 87 102 109 113 109 107 102 98 96 90 86 88 87 84 80 84 80 76 74 76 79 76 72 69
71 61 62 67 80 94 103 104 99 105 101 99 97 102 103 77 70 78 91 92 86 82 82 90 78 76 92 117 121 118 113 100 97 95 88 82 89 87 78 79 80 79 76 72 74 75 76 51 43
92 71 65 67 80 95 104 112 103 99 98 90 101 106 91 74 67 66 66 70 77 79 73 77 77 88 107 120 127 124 117 113 108 95 85 81 80 75 73 76 77 77 76 74 69 65 54 31 26
63 115 68 73 89 92 107 108 112 107 95 99 106 103 94 85 73 70 69 80 93 88 88 90 90 93 102 118 132 129 120 116 104 88 81 79 76 70 70 71 67 60 70 67 66 61 39 25 11
64 103 79 74 79 99 100 108 111 113 110 121 135 118 110 122 112 96 99 109 106 97 105 113 105 105 115 120 128 128 123 121 112 97 84 71 63 61 69 66 79 56 59 58 43 53 41 30 30
79 77 71 84 81 81 98 108 106 110 124 122 114 96 102 124 138 118 125 125 115 108 119 124 119 98 99 121 134 145 143 138 135 118 88 80 75 62 53 49 87 112 80 74 60 52 41 28 52
80 70 73 93 85 75 63 84 100 123 121 131 118 102 107 140 148 136 135 135 128 122 117 112 99 82 85 94 119 144 147 154 159 157 136 51 56 64 44 35 42 233 112 145 132 66 44 49 50
56 33 78 89 70 63 63 86 104 107 116 156 156 114 156 150 159 155 148 149 148 135 134 127 117 123 161 172 167 193 196 216 231 236 242 250 271 16 330 310 347 8 230 258 281 307 332 13 47
88 75 87 103 106 69 91 121 112 118 123 122 132 145 165 158 149 151 164 158 156 162 170 181 197 188 187 207 226 230 230 230 249 265 266 272 282 288 287 283 285 295 265 250 269 268 260 290 328
126 77 61 312 156 208 207 189 160 107 108 121 129 112 135 150 166 151 156 156 156 198 239 256 259 251 244 251 261 268 268 264 262 268 276 278 274 274 270 265 264 267 274 267 261 259 256 273 281
135 110 51 117 102 78 152 154 135 129 112 109 121 140 143 123 126 135 139 137 144 159 192 229 236 229 244 265 272 278 281 280 274 271 274 278 281 279 274 267 251 252 253 263 258 257 258 258 264
134 145 130 107 87 80 73 60 12 144 122 103 79 77 106 124 119 112 113 104 88 55 31 11 353 35 358 323 313 301 294 298 296 290 286 282 279 277 272 267 263 252 250 251 252 251 251 256 262
111 120 118 90 106 105 65 108 105 121 121 131 127 184 310 19 80 103 99 90 54 5 336 315 305 292 290 303 320 316 293 302 303 309 302 297 288 282 274 265 257 252 249 250 252 254 253 253 256
106 114 139 167 99 96 106 117 81 98 132 145 114 117 126 90 325 330 318 335 4 359 350 359 36 7 325 311 343 358 334 283 288 298 302 295 287 284 281 276 269 254 245 252 253 252 254 254 256
107 113 115 102 121 118 117 121 102 94 95 90 92 96 99 97 102 90 63 71 72 74 65 39 18 18 5 323 314 330 326 326 309 291 296 300 295 286 284 275 269 267 259 253 254 253 252 253 253
358 149 129 129 134 133 128 122 115 100 74 46 107 114 97 97 104 105 107 109 99 44 50 30 34 13 353 332 325 319 318 315 307 304 304 298 287 279 281 276 272 280 269 260 258 254 252 254 254
69 178 154 106 147 122 150 123 121 140 90 19 345 154 152 140 148 184 314 317 322 337 339 342 341 342 339 333 328 324 321 317 313 301 293 291 290 284 277 276 277 280 269 256 259 258 256 255 255
170 163 187 185 268 234 187 196 163 54 351 19 340 310 266 211 208 270 284 289 308 319 326 325 329 334 334 332 327 327 328 323 320 308 294 288 287 285 282 278 279 282 272 260 269 270 256 252 255
150 167 168 181 22 204 219 222 284 247 302 359 347 301 297 288 293 292 292 291 302 309 309 307 310 318 319 319 322 322 323 326 323 317 302 289 284 281 278 277 276 277 276 270 273 265 262 254 253
187 186 233 276 229 227 252 265 266 293 262 320 328 316 309 279 279 287 290 293 295 295 280 284 299 307 309 311 311 316 320 322 323 319 311 296 289 283 285 284 286 263 289 265 280 265 268 259 269
225 245 280 289 279 267 274 276 282 290 304 308 318 316 316 279 281 291 292 290 287 280 279 293 305 308 311 312 312 313 318 320 321 316 312 301 292 285 279 279 281 270 272 275 278 269 259 253 259
264 270 275 283 297 301 307 297 301 309 303 306 309 315 315 308 301 297 292 288 289 295 303 305 309 312 312 311 312 313 315 317 321 318 316 305 296 293 285 279 278 276 274 269 267 267 255 263 267
290 289 286 292 295 302 312 318 296 295 297 296 303 318 316 310 307 304 296 293 295 297 300 300 303 303 304 306 308 309 312 315 319 319 317 311 305 304 299 295 290 287 278 268 264 264 252 255 263
284 284 279 289 297 302 309 315 299 305 306 297 297 307 308 306 302 302 299 296 297 300 299 298 299 302 304 303 303 305 307 312 315 319 317 316 303 303 303 300 296 295 286 285 269 261 254 247 258
283 282 288 293 300 302 307 315 311 306 296 297 300 302 302 300 297 298 300 299 298 299 296 298 300 302 303 303 302 304 307 308 312 315 315 313 300 302 305 302 300 297 294 283 273 257 262 246 246
Height
5908 5904 5903 5901 5904 5898 5898 5899 5900 5901 5902 5903 5903 5905 5908 5910 5912 5916 5914 5915 5915 5916 5918 5919 5920 5921 5921 5922 5921 5921 5922 5922 5923 5923 5923 5923 5924 5924 5924 5923 5921 5920 5919 5920 5919 5918 5917 5916 5914
5910 5907 5905 5902 5901 5900 5900 5900 5901 5902 5903 5905 5906 5908 5910 5912 5913 5915 5916 5916 5918 5918 5919 5921 5921 5922 5923 5923 5924 5923 5923 5924 5925 5925 5925 5925 5925 5926 5926 5925 5923 5922 5922 5922 5922 5921 5920 5919 5919
5912 5909 5907 5905 5902 5901 5902 5902 5903 5904 5905 5907 5908 5909 5910 5913 5914 5916 5918 5918 5919 5919 5920 5922 5923 5923 5924 5925 5926 5925 5925 5927 5927 5926 5927 5926 5927 5927 5927 5927 5925 5925 5924 5924 5924 5923 5923 5922 5921
5915 5913 5910 5908 5905 5904 5905 5906 5906 5906 5907 5909 5910 5911 5913 5914 5915 5917 5919 5919 5921 5922 5922 5923 5924 5925 5925 5926 5927 5926 5927 5927 5927 5928 5928 5928 5928 5928 5928 5928 5927 5926 5926 5926 5926 5925 5925 5924 5924
5918 5916 5913 5911 5909 5908 5909 5910 5910 5910 5910 5911 5912 5914 5915 5916 5916 5918 5920 5921 5922 5922 5923 5925 5925 5925 5926 5926 5926 5927 5928 5929 5929 5929 5930 5929 5929 5930 5930 5929 5929 5928 5928 5928 5928 5928 5927 5927 5927
5921 5919 5917 5914 5913 5912 5912 5914 5915 5916 5915 5915 5916 5917 5918 5918 5918 5918 5920 5922 5923 5923 5923 5925 5926 5926 5926 5926 5927 5929 5930 5930 5929 5931 5931 5931 5931 5931 5931 5930 5929 5930 5930 5930 5930 5930 5929 5929 5929
5924 5923 5921 5920 5917 5916 5916 5917 5918 5919 5918 5920 5920 5921 5922 5922 5922 5922 5922 5924 5925 5925 5925 5926 5927 5927 5927 5928 5929 5930 5931 5931 5931 5932 5932 5932 5932 5932 5931 5930 5930 5930 5930 5931 5931 5930 5930 5929 5928
5926 5926 5925 5924 5922 5919 5918 5918 5920 5921 5921 5922 5923 5924 5924 5923 5923 5924 5924 5924 5925 5925 5926 5928 5928 5928 5929 5930 5931 5931 5931 5931 5932 5932 5933 5932 5932 5932 5931 5931 5931 5931 5931 5931 5931 5930 5930 5929 5928
5928 5928 5928 5927 5927 5926 5921 5921 5921 5921 5923 5924 5924 5924 5924 5924 5924 5925 5925 5926 5926 5926 5927 5928 5929 5930 5930 5931 5931 5932 5932 5933 5933 5933 5933 5933 5932 5932 5932 5932 5931 5931 5931 5930 5930 5930 5931 5930 5927
5928 5929 5929 5930 5929 5928 5927 5924 5922 5921 5922 5924 5924 5924 5924 5924 5925 5925 5926 5926 5927 5928 5929 5929 5930 5930 5931 5931 5932 5933 5933 5933 5933 5933 5934 5934 5933 5932 5932 5931 5931 5930 5931 5930 5931 5931 5931 5930 5928
5930 5932 5931 5931 5930 5930 5929 5927 5925 5924 5924 5924 5925 5926 5926 5926 5925 5926 5927 5927 5928 5929 5930 5930 5931 5931 5931 5932 5932 5933 5933 5932 5932 5932 5934 5934 5933 5932 5932 5932 5930 5930 5929 5930 5930 5931 5932 5931 5930
5932 5933 5935 5935 5932 5931 5931 5929 5928 5927 5928 5926 5926 5926 5926 5927 5926 5926 5927 5928 5929 5929 5930 5930 5931 5931 5931 5931 5933 5934 5934 5933 5932 5932 5933 5934 5934 5933 5932 5931 5931 5931 5930 5929 5929 5930 5930 5930 5930
5933 5934 5935 5934 5933 5931 5931 5931 5930 5929 5928 5928 5927 5926 5927 5928 5927 5927 5926 5928 5929 5929 5930 5930 5930 5930 5929 5929 5929 5931 5932 5932 5932 5931 5932 5933 5933 5933 5932 5931 5930 5930 5930 5929 5929 5929 5929 5929 5929
5932 5933 5933 5934 5932 5933 5932 5932 5931 5929 5928 5928 5927 5927 5927 5928 5928 5927 5927 5927 5928 5929 5930 5930 5929 5929 5928 5928 5928 5928 5929 5930 5930 5930 5930 5930 5931 5932 5932 5931 5930 5930 5929 5928 5927 5929 5929 5930 5928
5933 5933 5934 5933 5932 5933 5932 5932 5931 5930 5927 5927 5928 5928 5927 5927 5928 5928 5927 5928 5928 5929 5930 5930 5929 5928 5928 5928 5927 5926 5926 5926 5927 5928 5928 5928 5927 5928 5929 5929 5929 5928 5928 5928 5926 5926 5927 5928 5928
5932 5933 5934 5933 5933 5932 5932 5932 5931 5931 5929 5929 5928 5929 5928 5927 5928 5928 5928 5929 5929 5929 5929 5929 5929 5928 5927 5927 5926 5924 5924 5923 5923 5924 5924 5924 5925 5925 5926 5926 5926 5926 5925 5925 5925 5924 5923 5924 5925
5934 5935 5935 5936 5935 5933 5932 5932 5931 5931 5930 5931 5931 5930 5931 5930 5929 5929 5928 5928 5929 5929 5929 5929 5928 5928 5927 5926 5924 5923 5922 5922 5921 5921 5920 5920 5920 5921 5921 5922 5922 5922 5921 5921 5921 5920 5920 5920 5921
5937 5938 5938 5938 5937 5935 5933 5933 5932 5933 5933 5933 5931 5932 5931 5931 5931 5930 5929 5929 5929 5929 5928 5928 5927 5926 5926 5925 5924 5922 5921 5920 5919 5918 5917 5916 5916 5916 5916 5916 5916 5917 5916 5916 5916 5915 5916 5915 5915
5940 5940 5940 5940 5939 5937 5936 5936 5935 5934 5934 5933 5933 5933 5933 5932 5931 5931 5931 5930 5930 5930 5929 5927 5926 5925 5925 5924 5923 5921 5920 5918 5917 5915 5914 5912 5911 5910 5910 5910 5910 5911 5911 5910 5910 5910 5910 5910 5910
5942 5941 5941 5941 5940 5940 5939 5939 5937 5937 5936 5936 5935 5935 5934 5933 5933 5933 5932 5931 5930 5929 5928 5926 5924 5924 5923 5923 5921 5919 5917 5916 5914 5912 5910 5907 5905 5905 5905 5904 5904 5904 5904 5904 5904 5904 5903 5903 5903
5942 5942 5941 5942 5942 5942 5941 5941 5940 5939 5938 5938 5938 5937 5935 5934 5933 5933 5932 5931 5930 5929 5928 5926 5924 5922 5921 5920 5918 5916 5915 5913 5911 5908 5905 5903 5902 5899 5898 5898 5897 5896 5895 5896 5895 5896 5895 5895 5896
5942 5942 5943 5943 5944 5944 5944 5944 5943 5941 5941 5940 5939 5938 5936 5935 5933 5932 5931 5930 5929 5928 5926 5924 5923 5921 5919 5917 5915 5913 5912 5908 5905 5903 5899 5896 5893 5892 5891 5891 5889 5888 5885 5886 5886 5885 5885 5885 5886
5942 5943 5943 5944 5945 5945 5945 5946 5944 5944 5942 5941 5940 5938 5937 5935 5933 5931 5930 5929 5928 5926 5924 5922 5919 5917 5915 5913 5911 5909 5908 5905 5902 5897 5894 5890 5886 5883 5881 5880 5880 5880 5879 5878 5878 5878 5876 5876 5876
5942 5943 5944 5945 5945 5946 5946 5946 5945 5945 5944 5942 5940 5938 5937 5935 5932 5930 5928 5927 5926 5924 5922 5920 5917 5914 5911 5909 5906 5904 5901 5898 5896 5892 5887 5882 5880 5876 5873 5870 5869 5868 5870 5870 5869 5867 5866 5867 5867
5942 5944 5945 5946 5945 5945 5945 5946 5945 5944 5944 5942 5941 5939 5937 5934 5932 5929 5927 5925 5923 5922 5920 5918 5914 5911 5908 5905 5902 5899 5896 5893 5889 5885 5880 5876 5871 5867 5864 5861 5861 5857 5859 5859 5857 5857 5854 5855 5854
5942 5943 5943 5943 5943 5943 5942 5943 5944 5942 5941 5939 5938 5937 5934 5932 5929 5927 5923 5921 5920 5918 5916 5913 5909 5905 5902 5899 5895 5891 5888 5885 5881 5877 5872 5867 5863 5859 5855 5851 5850 5851 5846 5846 5845 5845 5845 5842 5841
5941 5941 5941 5940 5940 5940 5941 5941 5941 5939 5937 5936 5935 5933 5931 5928 5926 5924 5920 5917 5914 5911 5908 5905 5902 5899 5895 5891 5887 5883 5880 5876 5872 5868 5862 5857 5852 5848 5845 5841 5838 5836 5834 5833 5832 5833 5833 5829 5832
5939 5940 5939 5938 5937 5936 5936 5936 5935 5933 5932 5931 5930 5929 5927 5924 5921 5918 5914 5911 5908 5906 5902 5899 5895 5892 5888 5884 5879 5875 5871 5867 5862 5858 5852 5847 5842 5837 5833 5828 5824 5821 5818 5818 5818 5818 5820 5819 5822
5937 5936 5936 5935 5934 5932 5931 5932 5929 5928 5927 5926 5925 5924 5921 5918 5915 5911 5907 5903 5901 5898 5894 5891 5887 5883 5880 5876 5872 5868 5863 5858 5853 5849 5844 5838 5833 5828 5823 5817 5813 5810 5807 5804 5804 5806 5805 5807 5812
5932 5932 5932 5931 5929 5927 5924 5926 5924 5924 5922 5919 5918 5916 5914 5911 5907 5904 5900 5896 5892 5888 5884 5881 5878 5876 5872 5868 5863 5859 5854 5849 5844 5839 5835 5829 5824 5819 5814 5808 5805 5800 5795 5791 5790 5792 5795 5797 5801